Regional Weather Roundup
Issued by NWS

Home | Current Version | Previous Version | Graphics & Text | Print | Product List | Glossary On
Versions: 1 2 3 4 5 6 7 8 9 10 11 12 13 14 15 16 17 18 19 20 21 22 23 24 25 26 27 28 29 30 31 32 33 34 35 36 37 38 39 40 41 42 43 44 45 46 47 48 49 50
740
ASUS43 KLMK 250610
RWRKY
KENTUCKY REGIONAL WEATHER ROUNDUP
NATIONAL WEATHER SERVICE LOUISVILLE KY
200 AM EDT SUN SEP 25 2016

NOTE "FAIR" INDICATES FEW OR NO CLOUDS BELOW 12,000 FEET
WITH NO SIGNIFICANT WEATHER AND/OR OBSTRUCTIONS TO VISIBILITY.

KYZ001>023-026-027-061>063-070>075-250700-
WESTERN AND SOUTH CENTRAL KENTUCKY

CITY           SKY/WX    TMP DP  RH WIND       PRES   REMARKS
PADUCAH        CLEAR     71  68  90 CALM      30.06S FOG
HENDERSON      CLEAR     70  64  83 CALM      30.07S
OWENSBORO      NOT AVBL
HOPKINSVILLE   CLEAR     69  66  92 NE3       30.07S
BOWLING GREEN  CLEAR     69  67  93 CALM      30.08S FOG
GLASGOW        CLEAR    N/A N/A N/A CALM      30.08S
$$

KYZ024-025-028>034-038-045-046-053-250700-
NORTH CENTRAL KENTUCKY

CITY           SKY/WX    TMP DP  RH WIND       PRES   REMARKS
LOUISVILLE/SDF CLEAR     74  66  76 N5        30.09S
LOUISVILLE/LOU CLEAR     75  66  73 N3        30.10S
FORT KNOX      CLEAR     71  67  86 N6        30.09S
$$

KYZ035>037-039>044-047>052-055>060-089>105-250700-
NORTHEAST KENTUCKY

CITY           SKY/WX    TMP DP  RH WIND       PRES   REMARKS
LEXINGTON      CLEAR     74  64  71 E6        30.12S
COVINGTON      CLEAR     71  66  84 NE6       30.14R
FRANKFORT      CLEAR     73  65  75 CALM      30.11R
$$

KYZ054-064>069-076>088-106>120-250700-
SOUTHEAST KENTUCKY

CITY           SKY/WX    TMP DP  RH WIND       PRES   REMARKS
JACKSON        CLEAR     71  64  78 CALM      30.13S
LONDON         CLEAR     68  63  84 CALM      30.12S
SOMERSET       CLEAR     64  64 100 CALM      30.12S
MIDDLESBORO    CLEAR     63  63 100 CALM      30.13S
MONTICELLO     CLEAR     62  61  96 CALM      30.12S FOG
$$





USA.gov is the U.S. government's official web portal to all federal, state and local government web resources and services.